FW5963 Weather Reports


time (UTC)temp
C
wind
direction
speed
KPH
gust
KPH
rain 1hr
cm
rain 24hr
cm
rain mn
cm
humidity
%
barometer
mb
20260502190500 22 161 3.2 9.7 0.00 0.00 0.00 23 1020.9
20260502190400 22 217 3.2 9.7 0.00 0.00 0.00 26 1020.8
20260502190339 22 197 3.2 9.7 0.00 0.00 0.00 25 1020.8
20260502190231 21 123 3.2 9.7 0.00 0.00 0.00 27 1020.9
20260502190100 21 134 3.2 9.7 0.00 0.00 0.00 26 1021.0
20260502190010 21 269 3.2 9.7 0.00 0.00 0.00 26 1021.0
20260502185802 21 291 3.2 9.7 0.00 0.00 0.00 25 1020.9
20260502185530 21 92 3.2 9.7 0.00 0.00 0.00 24 1021.0
20260502185422 21 13 1.6 9.7 0.00 0.00 0.00 21 1021.0
20260502185315 22 141 1.6 9.7 0.00 0.00 0.00 21 1021.0
20260502185208 22 152 1.6 9.7 0.00 0.00 0.00 24 1021.0
20260502185102 22 110 1.6 8.0 0.00 0.00 0.00 27 1021.0
20260502185002 22 277 1.6 8.0 0.00 0.00 0.00 26 1021.0
20260502184900 21 115 3.2 8.0 0.00 0.00 0.00 23 1021.1
20260502184802 22 215 3.2 8.0 0.00 0.00 0.00 27 1021.1
20260502184636 21 167 3.2 9.7 0.00 0.00 0.00 24 1021.1
20260502184502 21 152 3.2 9.7 0.00 0.00 0.00 27 1021.1
20260502184401 21 260 3.2 9.7 0.00 0.00 0.00 26 1021.0
20260502184301 21 42 3.2 9.7 0.00 0.00 0.00 27 1021.0
20260502184202 21 240 3.2 11.3 0.00 0.00 0.00 25 1021.1
20260502184102 21 146 3.2 11.3 0.00 0.00 0.00 25 1021.1
20260502184002 21 126 3.2 11.3 0.00 0.00 0.00 26 1021.2
20260502183901 21 198 3.2 11.3 0.00 0.00 0.00 24 1021.1
20260502183801 21 99 3.2 11.3 0.00 0.00 0.00 23 1021.1
20260502183728 21 186 3.2 11.3 0.00 0.00 0.00 25 1021.1
20260502183622 21 117 3.2 11.3 0.00 0.00 0.00 24 1021.2
20260502183402 21 134 3.2 11.3 0.00 0.00 0.00 24 1021.3
20260502183300 21 243 3.2 9.7 0.00 0.00 0.00 25 1021.3
20260502183101 21 130 3.2 12.9 0.00 0.00 0.00 25 1021.3
20260502182800 21 134 3.2 12.9 0.00 0.00 0.00 25 1021.3
20260502182742 21 117 3.2 12.9 0.00 0.00 0.00 25 1021.3
20260502182317 21 169 3.2 12.9 0.00 0.00 0.00 23 1021.3
20260502182212 21 146 1.6 9.7 0.00 0.00 0.00 24 1021.3
20260502181802 21 245 3.2 9.7 0.00 0.00 0.00 25 1021.4
20260502181700 21 146 3.2 11.3 0.00 0.00 0.00 24 1021.5
20260502181640 21 80 3.2 11.3 0.00 0.00 0.00 25 1021.5
20260502181232 21 143 3.2 11.3 0.00 0.00 0.00 22 1021.3
20260502180914 21 178 3.2 11.3 0.00 0.00 0.00 25 1021.5
20260502180808 21 155 3.2 9.7 0.00 0.00 0.00 25 1021.3
20260502180701 21 159 3.2 12.9 0.00 0.00 0.00 23 1021.3
20260502180602 21 128 3.2 12.9 0.00 0.00 0.00 23 1021.4
20260502180502 21 78 3.2 12.9 0.00 0.00 0.00 26 1021.5
20260502180401 21 136 3.2 12.9 0.00 0.00 0.00 23 1021.5
20260502180344 21 136 3.2 12.9 0.00 0.00 0.00 23 1021.5
20260502180238 21 222 3.2 12.9 0.00 0.00 0.00 22 1021.5
20260502170436 19 94 1.6 6.4 0.00 0.00 0.00 27 1021.8
20260502170330 19 123 1.6 6.4 0.00 0.00 0.00 29 1021.8
20260502170223 19 148 1.6 6.4 0.00 0.00 0.00 28 1021.9
20260502170118 19 144 1.6 6.4 0.00 0.00 0.00 28 1021.8
20260502164302 18 73 1.6 4.8 0.00 0.00 0.00 32 1021.8
20260502164242 18 73 1.6 4.8 0.00 0.00 0.00 31 1021.8
20260502164135 18 73 1.6 4.8 0.00 0.00 0.00 30 1021.8
20260502164033 18 271 1.6 4.8 0.00 0.00 0.00 28 1021.7
20260502163817 18 315 1.6 4.8 0.00 0.00 0.00 28 1021.8
20260502163710 18 249 1.6 6.4 0.00 0.00 0.00 32 1021.8
20260502163603 18 252 1.6 6.4 0.00 0.00 0.00 30 1021.9
20260502163502 18 236 1.6 6.4 0.00 0.00 0.00 31 1021.8
20260502163201 18 133 1.6 6.4 0.00 0.00 0.00 31 1021.8
20260502163140 18 137 1.6 6.4 0.00 0.00 0.00 30 1021.8
20260502163035 18 157 1.6 6.4 0.00 0.00 0.00 30 1021.9
20260502162802 18 236 0.0 4.8 0.00 0.00 0.00 28 1021.9
20260502162732 18 260 0.0 4.8 0.00 0.00 0.00 30 1021.8
20260502162626 18 130 0.0 6.4 0.00 0.00 0.00 31 1021.8
20260502162520 18 222 0.0 4.8 0.00 0.00 0.00 33 1021.8
20260502162415 18 99 0.0 1.6 0.00 0.00 0.00 33 1021.8
20260502162304 18 90 0.0 3.2 0.00 0.00 0.00 35 1021.8
20260502162201 18 101 0.0 3.2 0.00 0.00 0.00 32 1021.7
20260502162124 18 121 0.0 3.2 0.00 0.00 0.00 31 1021.7
20260502162024 18 156 0.0 3.2 0.00 0.00 0.00 30 1021.8
20260502161806 18 86 0.0 3.2 0.00 0.00 0.00 33 1021.7
20260502161702 18 90 0.0 3.2 0.00 0.00 0.00 32 1021.7
20260502161601 18 90 0.0 3.2 0.00 0.00 0.00 33 1021.8
20260502161400 17 76 0.0 1.6 0.00 0.00 0.00 33 1021.7
20260502161201 17 143 0.0 1.6 0.00 0.00 0.00 31 1021.7
20260502161102 17 142 0.0 1.6 0.00 0.00 0.00 31 1021.7
20260502160901 17 146 0.0 1.6 0.00 0.00 0.00 30 1021.7
20260502160840 17 146 0.0 1.6 0.00 0.00 0.00 30 1021.7
20260502160734 17 146 0.0 1.6 0.00 0.00 0.00 30 1021.7
20260502160628 17 184 0.0 1.6 0.00 0.00 0.00 31 1021.7
20260502160522 17 186 0.0 1.6 0.00 0.00 0.00 31 1021.7
20260502160301 17 185 0.0 1.6 0.00 0.00 0.00 35 1021.7
20260502160220 17 161 0.0 1.6 0.00 0.00 0.00 34 1021.7
20260502160114 17 235 0.0 1.6 0.00 0.00 0.00 32 1021.6
20260502152310 16 138 0.0 3.2 0.00 0.00 0.00 31 1021.8
20260502152203 16 161 0.0 3.2 0.00 0.00 0.00 32 1021.8
20260502152002 16 141 0.0 0.0 0.00 0.00 0.00 32 1021.9
20260502151902 16 142 0.0 0.0 0.00 0.00 0.00 33 1021.9
20260502151802 16 177 0.0 0.0 0.00 0.00 0.00 32 1021.8
20260502151701 16 177 0.0 0.0 0.00 0.00 0.00 33 1021.8
20260502151601 16 186 0.0 0.0 0.00 0.00 0.00 33 1021.9
20260502151502 16 144 0.0 0.0 0.00 0.00 0.00 34 1021.9
20260502151408 16 144 0.0 0.0 0.00 0.00 0.00 34 1021.8
20260502151302 16 144 0.0 0.0 0.00 0.00 0.00 35 1021.8
20260502151201 16 144 0.0 0.0 0.00 0.00 0.00 35 1021.8
20260502151101 15 144 0.0 0.0 0.00 0.00 0.00 37 1021.8
20260502151003 15 144 0.0 0.0 0.00 0.00 0.00 34 1021.9
20260502150902 15 144 0.0 0.0 0.00 0.00 0.00 35 1021.8
20260502150802 15 144 0.0 1.6 0.00 0.00 0.00 34 1021.8
20260502150701 15 144 0.0 1.6 0.00 0.00 0.00 35 1021.8
20260502150600 15 144 0.0 1.6 0.00 0.00 0.00 34 1021.8
20260502150501 15 144 0.0 1.6 0.00 0.00 0.00 34 1021.9
20260502150401 15 144 0.0 1.6 0.00 0.00 0.00 34 1021.8
20260502150330 15 144 0.0 1.6 0.00 0.00 0.00 34 1021.8
20260502150200 15 105 0.0 1.6 0.00 0.00 0.00 36 1021.8
20260502130600 3 207 0.0 0.0 0.00 0.00 0.00 69 1021.4
20260502130539 3 207 0.0 0.0 0.00 0.00 0.00 69 1021.4
20260502130430 3 209 0.0 0.0 0.00 0.00 0.00 69 1021.5
20260502130220 3 207 0.0 0.0 0.00 0.00 0.00 69 1021.5
20260502130111 3 207 0.0 0.0 0.00 0.00 0.00 69 1021.6
20260502123724 3 207 0.0 0.0 0.00 0.00 0.00 69 1021.5
20260502123613 3 207 0.0 0.0 0.00 0.00 0.00 69 1021.3
20260502123301 3 207 0.0 0.0 0.00 0.00 0.00 69 1021.3
20260502123139 3 207 0.0 0.0 0.00 0.00 0.00 69 1021.3
20260502123033 3 207 0.0 0.0 0.00 0.00 0.00 69 1021.3
20260502122922 3 207 0.0 0.0 0.00 0.00 0.00 69 1021.3
20260502122812 3 207 0.0 0.0 0.00 0.00 0.00 69 1021.3
20260502122601 3 207 0.0 0.0 0.00 0.00 0.00 69 1021.3
20260502122339 3 207 0.0 0.0 0.00 0.00 0.00 69 1021.3
20260502122232 3 207 0.0 0.0 0.00 0.00 0.00 69 1021.3
20260502122024 3 207 0.0 0.0 0.00 0.00 0.00 69 1021.2
20260502121907 3 207 0.0 0.0 0.00 0.00 0.00 69 1021.3
20260502121800 3 207 0.0 0.0 0.00 0.00 0.00 69 1021.3
20260502121601 3 207 0.0 0.0 0.00 0.00 0.00 69 1021.3
20260502121541 3 207 0.0 0.0 0.00 0.00 0.00 69 1021.3
20260502121325 3 207 0.0 0.0 0.00 0.00 0.00 69 1021.3
20260502121217 3 207 0.0 0.0 0.00 0.00 0.00 69 1021.3
20260502121108 3 207 0.0 0.0 0.00 0.00 0.00 69 1021.3
20260502121004 4 207 0.0 0.0 0.00 0.00 0.00 69 1021.3
20260502120900 4 207 0.0 0.0 0.00 0.00 0.00 69 1021.4
20260502120802 4 207 0.0 0.0 0.00 0.00 0.00 69 1021.4
20260502120702 4 207 0.0 0.0 0.00 0.00 0.00 69 1021.3
20260502120602 4 207 0.0 1.6 0.00 0.00 0.00 69 1021.3
20260502120501 4 207 0.0 1.6 0.00 0.00 0.00 69 1021.3
20260502120202 4 207 0.0 1.6 0.00 0.00 0.00 69 1021.3
20260502115901 4 207 0.0 1.6 0.00 0.00 0.00 69 1021.3
20260502115801 4 207 0.0 1.6 0.00 0.00 0.00 69 1021.3
20260502115741 4 207 0.0 1.6 0.00 0.00 0.00 69 1021.3
20260502115633 4 207 0.0 0.0 0.00 0.00 0.00 69 1021.3
20260502115525 4 207 0.0 0.0 0.00 0.00 0.00 69 1021.3
20260502115416 4 207 0.0 0.0 0.00 0.00 0.00 69 1021.3
20260502115305 4 207 0.0 0.0 0.00 0.00 0.00 69 1021.3
20260502115218 4 207 0.0 0.0 0.00 0.00 0.00 69 1021.3
20260502115111 4 207 0.0 0.0 0.00 0.00 0.00 69 1021.3
20260502115001 4 207 0.0 0.0 0.00 0.00 0.00 69 1021.3
20260502114900 4 207 0.0 0.0 0.00 0.00 0.00 69 1021.3
20260502114700 4 207 0.0 0.0 0.00 0.00 0.00 69 1021.3
20260502114401 4 207 0.0 1.6 0.00 0.00 0.00 69 1021.3
20260502114301 5 207 0.0 1.6 0.00 0.00 0.00 69 1021.4
20260502114200 5 207 0.0 1.6 0.00 0.00 0.00 69 1021.3
20260502114141 5 207 0.0 1.6 0.00 0.00 0.00 69 1021.3
20260502114031 5 207 0.0 1.6 0.00 0.00 0.00 69 1021.3
20260502113859 5 207 0.0 1.6 0.00 0.00 0.00 69 1021.4
20260502113831 5 207 0.0 1.6 0.00 0.00 0.00 69 1021.4
20260502113501 5 207 0.0 0.0 0.00 0.00 0.00 68 1021.3
20260502113400 5 207 0.0 1.6 0.00 0.00 0.00 68 1021.4
20260502113301 5 207 0.0 1.6 0.00 0.00 0.00 68 1021.5
20260502113241 5 207 0.0 1.6 0.00 0.00 0.00 68 1021.5
20260502113131 5 207 0.0 4.8 0.00 0.00 0.00 68 1021.4
20260502113025 5 207 0.0 4.8 0.00 0.00 0.00 68 1021.5
20260502112901 5 207 0.0 4.8 0.00 0.00 0.00 68 1021.4
20260502112801 5 207 0.0 4.8 0.00 0.00 0.00 68 1021.5
20260502112700 5 207 0.0 4.8 0.00 0.00 0.00 67 1021.3
20260502112601 5 207 0.0 4.8 0.00 0.00 0.00 67 1021.4
20260502112540 5 207 0.0 4.8 0.00 0.00 0.00 67 1021.4
20260502112430 5 207 0.0 4.8 0.00 0.00 0.00 67 1021.4
20260502112103 5 211 0.0 0.0 0.00 0.00 0.00 66 1021.5
20260502112001 5 210 0.0 0.0 0.00 0.00 0.00 66 1021.5
20260502111901 5 210 0.0 0.0 0.00 0.00 0.00 65 1021.5
20260502111841 5 210 0.0 0.0 0.00 0.00 0.00 65 1021.5
20260502111731 5 210 0.0 0.0 0.00 0.00 0.00 65 1021.5
20260502111620 5 210 0.0 0.0 0.00 0.00 0.00 65 1021.5
20260502111511 5 210 0.0 0.0 0.00 0.00 0.00 65 1021.4
20260502111401 5 210 0.0 0.0 0.00 0.00 0.00 65 1021.4
20260502111301 5 210 0.0 0.0 0.00 0.00 0.00 65 1021.4
20260502111201 5 210 0.0 0.0 0.00 0.00 0.00 65 1021.5
20260502111100 5 210 0.0 1.6 0.00 0.00 0.00 65 1021.4
20260502111021 5 210 0.0 1.6 0.00 0.00 0.00 65 1021.4
20260502110903 5 210 0.0 3.2 0.00 0.00 0.00 65 1021.5
20260502110802 5 210 0.0 3.2 0.00 0.00 0.00 65 1021.5
20260502110702 5 211 0.0 3.2 0.00 0.00 0.00 66 1021.5
20260502110502 5 210 1.6 3.2 0.00 0.00 0.00 66 1021.4
20260502110443 5 210 1.6 3.2 0.00 0.00 0.00 66 1021.5
20260502110333 5 210 1.6 3.2 0.00 0.00 0.00 66 1021.4
20260502110005 5 210 1.6 3.2 0.00 0.00 0.00 67 1021.4
20260502105900 5 210 1.6 3.2 0.00 0.00 0.00 67 1021.5
20260502105800 5 210 1.6 3.2 0.00 0.00 0.00 67 1021.4
20260502105743 5 210 1.6 3.2 0.00 0.00 0.00 67 1021.4
20260502105600 5 210 1.6 3.2 0.00 0.00 0.00 67 1021.4
20260502105500 5 210 1.6 3.2 0.00 0.00 0.00 68 1021.5
20260502105400 5 211 0.0 3.2 0.00 0.00 0.00 68 1021.4
20260502105300 5 211 0.0 3.2 0.00 0.00 0.00 68 1021.5
20260502105245 5 210 0.0 3.2 0.00 0.00 0.00 68 1021.5
20260502105134 5 211 0.0 3.2 0.00 0.00 0.00 68 1021.4
20260502105036 5 210 0.0 1.6 0.00 0.00 0.00 68 1021.3
20260502104859 5 210 0.0 1.6 0.00 0.00 0.00 69 1021.4
20260502104825 5 211 0.0 0.0 0.00 0.00 0.00 69 1021.4
20260502104715 5 210 0.0 1.6 0.00 0.00 0.00 69 1021.5
20260502104605 5 210 0.0 1.6 0.00 0.00 0.00 69 1021.5
20260502104500 5 211 0.0 1.6 0.00 0.00 0.00 69 1021.4
20260502104401 5 210 0.0 1.6 0.00 0.00 0.00 69 1021.4
20260502104344 5 210 0.0 1.6 0.00 0.00 0.00 69 1021.4
20260502104235 5 211 0.0 1.6 0.00 0.00 0.00 69 1021.4
20260502104125 5 211 0.0 1.6 0.00 0.00 0.00 69 1021.4
20260502104024 5 211 0.0 1.6 0.00 0.00 0.00 70 1021.4
20260502103905 5 211 0.0 1.6 0.00 0.00 0.00 69 1021.4
20260502103801 5 210 0.0 0.0 0.00 0.00 0.00 69 1021.4
20260502103645 5 210 0.0 0.0 0.00 0.00 0.00 69 1021.4
20260502103535 5 210 0.0 0.0 0.00 0.00 0.00 69 1021.4
20260502103400 5 211 0.0 0.0 0.00 0.00 0.00 69 1021.3
20260502103201 5 210 0.0 0.0 0.00 0.00 0.00 69 1021.3
20260502103102 5 210 0.0 0.0 0.00 0.00 0.00 68 1021.3
20260502103001 5 211 0.0 0.0 0.00 0.00 0.00 68 1021.4
20260502102943 5 211 0.0 0.0 0.00 0.00 0.00 68 1021.4
20260502102834 5 210 0.0 0.0 0.00 0.00 0.00 68 1021.3
20260502102723 5 210 0.0 0.0 0.00 0.00 0.00 68 1021.2
20260502102613 5 210 0.0 0.0 0.00 0.00 0.00 68 1021.3
20260502102503 6 210 0.0 1.6 0.00 0.00 0.00 68 1021.3
20260502102401 6 210 0.0 1.6 0.00 0.00 0.00 68 1021.3
20260502102300 6 210 0.0 1.6 0.00 0.00 0.00 68 1021.3
20260502102242 6 210 0.0 1.6 0.00 0.00 0.00 68 1021.3
20260502101913 6 210 0.0 1.6 0.00 0.00 0.00 68 1021.3
20260502101803 6 210 0.0 1.6 0.00 0.00 0.00 68 1021.3
20260502101700 6 210 0.0 1.6 0.00 0.00 0.00 68 1021.3
20260502101542 6 210 0.0 1.6 0.00 0.00 0.00 68 1021.2
20260502101433 6 210 0.0 1.6 0.00 0.00 0.00 68 1021.3
20260502101323 6 210 0.0 1.6 0.00 0.00 0.00 68 1021.3
20260502101213 6 210 0.0 1.6 0.00 0.00 0.00 68 1021.3
20260502101103 6 211 0.0 1.6 0.00 0.00 0.00 67 1021.3
20260502100901 6 211 0.0 1.6 0.00 0.00 0.00 67 1021.1
20260502100842 6 210 0.0 1.6 0.00 0.00 0.00 67 1021.1
20260502100733 6 210 0.0 1.6 0.00 0.00 0.00 67 1021.1
20260502100623 6 210 0.0 1.6 0.00 0.00 0.00 66 1021.1
20260502100512 6 211 0.0 0.0 0.00 0.00 0.00 66 1021.1
20260502100403 6 210 0.0 0.0 0.00 0.00 0.00 66 1021.1
20260502100142 6 211 0.0 0.0 0.00 0.00 0.00 66 1021.1
20260502091523 6 210 1.6 3.2 0.00 0.00 0.00 64 1021.1
20260502091412 6 210 1.6 3.2 0.00 0.00 0.00 64 1021.1
20260502091200 6 210 1.6 3.2 0.00 0.00 0.00 64 1021.1
20260502091100 6 210 1.6 3.2 0.00 0.00 0.00 64 1021.1
20260502091044 6 210 1.6 3.2 0.00 0.00 0.00 64 1021.1
20260502090822 6 210 1.6 4.8 0.00 0.00 0.00 65 1021.1
20260502090603 6 210 1.6 4.8 0.00 0.00 0.00 65 1021.3
20260502090500 6 210 1.6 4.8 0.00 0.00 0.00 65 1021.1
20260502090344 6 210 1.6 4.8 0.00 0.00 0.00 65 1021.2
20260502071501 8 241 0.0 3.2 0.00 0.00 0.00 61 1020.9
20260502071401 8 241 0.0 3.2 0.00 0.00 0.00 61 1020.9
20260502071302 8 241 0.0 3.2 0.00 0.00 0.00 61 1020.8
20260502071202 8 241 0.0 3.2 0.00 0.00 0.00 61 1020.8
20260502071101 8 241 0.0 3.2 0.00 0.00 0.00 61 1020.8
20260502070901 8 241 0.0 3.2 0.00 0.00 0.00 61 1020.8
20260502070802 8 241 0.0 3.2 0.00 0.00 0.00 61 1020.8
20260502070701 8 241 0.0 3.2 0.00 0.00 0.00 61 1020.8
20260502070527 8 241 0.0 3.2 0.00 0.00 0.00 61 1020.8
20260502070420 8 241 0.0 3.2 0.00 0.00 0.00 61 1020.8
20260502070312 8 241 1.6 3.2 0.00 0.00 0.00 61 1020.8
20260502070205 8 241 1.6 3.2 0.00 0.00 0.00 61 1020.9
20260502070101 8 241 1.6 3.2 0.00 0.00 0.00 61 1020.8
20260502070001 8 241 1.6 3.2 0.00 0.00 0.00 61 1021.0
20260502065901 8 241 1.6 3.2 0.00 0.00 0.00 61 1020.9
20260502065800 8 241 1.6 3.2 0.00 0.00 0.00 61 1021.0
20260502065700 8 241 1.6 3.2 0.00 0.00 0.00 61 1020.8
20260502065503 8 241 0.0 3.2 0.00 0.00 0.00 61 1020.9
20260502065401 8 241 0.0 3.2 0.00 0.00 0.00 61 1020.8
20260502065305 8 55 0.0 1.6 0.00 0.00 0.00 58 1020.8
20260502065038 8 58 0.0 1.6 0.00 0.00 0.00 59 1021.0
20260502064931 8 59 0.0 0.0 0.00 0.00 0.00 58 1021.0
20260502064826 8 59 0.0 1.6 0.00 0.00 0.00 57 1021.0
20260502064719 8 59 0.0 1.6 0.00 0.00 0.00 57 1021.0
20260502064613 8 59 0.0 1.6 0.00 0.00 0.00 57 1021.0
20260502064508 8 59 0.0 1.6 0.00 0.00 0.00 57 1021.0
20260502064401 8 59 0.0 1.6 0.00 0.00 0.00 57 1021.0
20260502064300 9 59 0.0 1.6 0.00 0.00 0.00 57 1020.9
20260502064200 9 59 0.0 1.6 0.00 0.00 0.00 57 1021.0
20260502064100 9 59 0.0 1.6 0.00 0.00 0.00 57 1021.0
20260502064000 9 59 0.0 1.6 0.00 0.00 0.00 57 1021.0
20260502063818 9 282 0.0 1.6 0.00 0.00 0.00 57 1021.0
20260502063712 9 282 0.0 1.6 0.00 0.00 0.00 57 1021.0
20260502063605 9 282 0.0 1.6 0.00 0.00 0.00 57 1021.0
20260502063501 9 282 0.0 1.6 0.00 0.00 0.00 57 1020.9
20260502063402 9 281 0.0 1.6 0.00 0.00 0.00 57 1021.0
20260502063302 8 281 0.0 1.6 0.00 0.00 0.00 58 1021.0
20260502063201 8 259 0.0 1.6 0.00 0.00 0.00 58 1021.0
20260502063101 8 259 0.0 1.6 0.00 0.00 0.00 58 1020.9
20260502063001 8 259 0.0 1.6 0.00 0.00 0.00 58 1021.0
20260502062800 8 259 0.0 1.6 0.00 0.00 0.00 59 1021.0
20260502062621 8 250 0.0 1.6 0.00 0.00 0.00 59 1021.0
20260502062515 8 249 0.0 1.6 0.00 0.00 0.00 59 1021.0
20260502062411 8 249 0.0 1.6 0.00 0.00 0.00 59 1021.1
20260502062306 8 249 0.0 1.6 0.00 0.00 0.00 60 1021.0
20260502062200 8 249 0.0 1.6 0.00 0.00 0.00 60 1021.0
20260502062107 8 249 0.0 1.6 0.00 0.00 0.00 60 1021.0
20260502061901 8 249 0.0 0.0 0.00 0.00 0.00 61 1021.0
20260502061645 8 249 0.0 0.0 0.00 0.00 0.00 61 1021.0
20260502061432 8 249 0.0 0.0 0.00 0.00 0.00 62 1021.0
20260502061219 8 249 0.0 1.6 0.00 0.00 0.00 61 1021.0
20260502061114 8 249 0.0 1.6 0.00 0.00 0.00 61 1021.0
20260502061009 8 249 0.0 1.6 0.00 0.00 0.00 61 1021.0
20260502060902 8 249 0.0 1.6 0.00 0.00 0.00 60 1021.0
20260502060801 8 249 0.0 1.6 0.00 0.00 0.00 60 1021.0
20260502060701 8 249 0.0 1.6 0.00 0.00 0.00 60 1021.0
20260502060600 8 249 0.0 1.6 0.00 0.00 0.00 60 1021.0
20260502060544 8 249 0.0 1.6 0.00 0.00 0.00 60 1021.0
20260502060400 8 249 0.0 1.6 0.00 0.00 0.00 60 1021.0
20260502060340 8 249 0.0 1.6 0.00 0.00 0.00 60 1021.0
20260502060210 8 249 0.0 1.6 0.00 0.00 0.00 59 1020.9
20260502060104 8 249 0.0 1.6 0.00 0.00 0.00 59 1021.0
20260502060007 8 249 0.0 1.6 0.00 0.00 0.00 58 1020.9
20260502055904 8 249 0.0 1.6 0.00 0.00 0.00 59 1021.0
20260502055802 8 261 0.0 1.6 0.00 0.00 0.00 58 1020.9
20260502055746 8 94 0.0 1.6 0.00 0.00 0.00 58 1020.9
20260502055639 8 94 0.0 0.0 0.00 0.00 0.00 57 1021.0
20260502055533 8 94 0.0 0.0 0.00 0.00 0.00 57 1020.9
20260502055428 8 94 0.0 0.0 0.00 0.00 0.00 57 1020.9
20260502055216 8 94 0.0 0.0 0.00 0.00 0.00 57 1020.8
20260502055109 9 94 0.0 0.0 0.00 0.00 0.00 56 1020.8
20260502055004 9 94 0.0 0.0 0.00 0.00 0.00 56 1020.8
20260502054902 9 94 0.0 0.0 0.00 0.00 0.00 55 1020.9
20260502054602 9 94 0.0 0.0 0.00 0.00 0.00 55 1020.8
20260502054502 10 94 0.0 0.0 0.00 0.00 0.00 55 1020.7
20260502054403 10 94 0.0 0.0 0.00 0.00 0.00 54 1020.8
20260502054208 10 94 0.0 1.6 0.00 0.00 0.00 54 1020.8
20260502053903 10 94 0.0 1.6 0.00 0.00 0.00 54 1020.7
20260502053742 10 94 0.0 1.6 0.00 0.00 0.00 54 1020.8
20260502053636 10 94 0.0 1.6 0.00 0.00 0.00 54 1020.7
20260502053529 10 94 0.0 1.6 0.00 0.00 0.00 54 1020.8
20260502053317 10 94 0.0 0.0 0.00 0.00 0.00 55 1020.8
20260502053212 10 94 0.0 0.0 0.00 0.00 0.00 55 1020.8
20260502053106 10 94 0.0 0.0 0.00 0.00 0.00 56 1020.8
20260502053004 10 94 0.0 0.0 0.00 0.00 0.00 56 1020.8
20260502052902 9 94 0.0 0.0 0.00 0.00 0.00 56 1020.8
20260502052802 9 94 0.0 0.0 0.00 0.00 0.00 56 1020.7
20260502052703 9 94 0.0 0.0 0.00 0.00 0.00 56 1020.8
20260502052602 9 94 0.0 0.0 0.00 0.00 0.00 55 1020.8
20260502052503 9 94 0.0 0.0 0.00 0.00 0.00 55 1020.8
20260502052402 10 94 0.0 0.0 0.00 0.00 0.00 55 1020.9
20260502052333 10 94 0.0 0.0 0.00 0.00 0.00 55 1020.9
20260502052228 10 94 0.0 0.0 0.00 0.00 0.00 55 1020.8
20260502052002 10 94 0.0 0.0 0.00 0.00 0.00 54 1020.8
20260502051926 10 94 0.0 0.0 0.00 0.00 0.00 54 1020.8
20260502051820 10 94 0.0 0.0 0.00 0.00 0.00 54 1020.8
20260502051714 10 94 0.0 0.0 0.00 0.00 0.00 54 1020.8
20260502051607 10 94 0.0 0.0 0.00 0.00 0.00 53 1020.8
20260502051502 10 94 0.0 0.0 0.00 0.00 0.00 53 1020.8
20260502051401 10 94 0.0 0.0 0.00 0.00 0.00 52 1020.8
20260502051303 10 94 0.0 0.0 0.00 0.00 0.00 52 1020.8
20260502051202 10 94 0.0 0.0 0.00 0.00 0.00 52 1020.8
20260502051143 10 94 0.0 0.0 0.00 0.00 0.00 52 1020.8
20260502051039 10 94 0.0 0.0 0.00 0.00 0.00 51 1020.8
20260502050932 11 94 0.0 0.0 0.00 0.00 0.00 51 1020.8
20260502050826 10 94 0.0 0.0 0.00 0.00 0.00 51 1020.8
20260502050719 10 96 0.0 0.0 0.00 0.00 0.00 51 1020.8
20260502050508 10 96 0.0 0.0 0.00 0.00 0.00 52 1020.8
20260502050403 10 96 0.0 0.0 0.00 0.00 0.00 52 1020.8
20260502050303 10 96 0.0 0.0 0.00 0.00 0.00 52 1020.8
20260502050202 10 96 0.0 0.0 0.00 0.00 0.00 52 1020.8
20260502050107 10 97 0.0 0.0 0.00 0.00 0.00 52 1020.8
20260502045938 10 97 0.0 0.0 0.00 0.00 0.00 52 1020.8
20260502045831 10 97 0.0 0.0 0.00 0.00 0.00 52 1020.7
20260502045726 10 97 0.0 0.0 0.00 0.00 0.00 52 1020.7
20260502045619 10 97 0.0 0.0 0.00 0.00 0.00 52 1020.8
20260502045513 10 97 0.0 0.0 0.00 0.00 0.00 52 1020.8
20260502045407 10 97 0.0 0.0 0.00 0.00 0.00 51 1020.7
20260502045305 10 97 0.0 0.0 0.00 0.00 0.00 51 1020.7
20260502045202 11 97 0.0 0.0 0.00 0.00 0.00 51 1020.7
20260502045102 11 97 0.0 0.0 0.00 0.00 0.00 51 1020.7
20260502045004 11 97 0.0 0.0 0.00 0.00 0.00 51 1020.7
20260502044902 11 97 0.0 0.0 0.00 0.00 0.00 51 1020.7
20260502044803 11 97 0.0 0.0 0.00 0.00 0.00 52 1020.7
20260502044702 11 97 0.0 0.0 0.00 0.00 0.00 51 1020.7
20260502044641 11 97 0.0 0.0 0.00 0.00 0.00 51 1020.7
20260502044536 11 97 0.0 0.0 0.00 0.00 0.00 51 1020.8
20260502044218 11 97 0.0 0.0 0.00 0.00 0.00 52 1020.8
20260502044112 11 97 0.0 0.0 0.00 0.00 0.00 51 1020.8
20260502044006 11 97 0.0 0.0 0.00 0.00 0.00 51 1020.8
20260502043903 11 97 0.0 0.0 0.00 0.00 0.00 51 1020.7
20260502043803 11 97 0.0 0.0 0.00 0.00 0.00 50 1020.8
20260502043703 11 97 0.0 0.0 0.00 0.00 0.00 50 1020.8
20260502043602 11 97 0.0 0.0 0.00 0.00 0.00 50 1020.8
20260502043542 11 97 0.0 0.0 0.00 0.00 0.00 50 1020.8
20260502043329 11 97 0.0 1.6 0.00 0.00 0.00 49 1020.7
20260502043223 11 97 0.0 1.6 0.00 0.00 0.00 49 1020.7
20260502043004 11 97 0.0 1.6 0.00 0.00 0.00 49 1020.7
20260502042802 11 97 0.0 1.6 0.00 0.00 0.00 49 1020.7
20260502042702 11 97 0.0 1.6 0.00 0.00 0.00 48 1020.8
20260502042602 11 97 0.0 1.6 0.00 0.00 0.00 48 1020.8
20260502042503 11 97 0.0 1.6 0.00 0.00 0.00 48 1020.7
20260502042403 11 98 0.0 0.0 0.00 0.00 0.00 49 1020.7
20260502042305 11 107 0.0 0.0 0.00 0.00 0.00 49 1020.7
20260502042115 11 107 0.0 0.0 0.00 0.00 0.00 50 1020.8
20260502042010 11 107 0.0 0.0 0.00 0.00 0.00 50 1020.7
20260502041903 11 113 0.0 0.0 0.00 0.00 0.00 50 1020.6
20260502041802 11 113 0.0 0.0 0.00 0.00 0.00 51 1020.7
20260502041702 11 113 0.0 0.0 0.00 0.00 0.00 51 1020.7
20260502041601 11 113 0.0 0.0 0.00 0.00 0.00 52 1020.7
20260502041545 11 113 0.0 0.0 0.00 0.00 0.00 52 1020.7
20260502041228 11 113 0.0 0.0 0.00 0.00 0.00 52 1020.7
20260502041121 11 88 0.0 0.0 0.00 0.00 0.00 52 1020.7
20260502041029 11 88 0.0 0.0 0.00 0.00 0.00 52 1020.7
20260502040903 11 88 0.0 0.0 0.00 0.00 0.00 52 1020.6
20260502040802 11 88 0.0 0.0 0.00 0.00 0.00 52 1020.6
20260502040701 11 88 0.0 0.0 0.00 0.00 0.00 52 1020.5
20260502040602 11 88 0.0 0.0 0.00 0.00 0.00 52 1020.6
20260502040502 11 88 0.0 0.0 0.00 0.00 0.00 52 1020.6
20260502040402 11 87 0.0 0.0 0.00 0.00 0.00 53 1020.5
20260502040202 11 87 0.0 1.6 0.00 0.00 0.00 53 1020.5
20260502040044 11 89 0.0 1.6 0.00 0.00 0.00 53 1020.5
20260502035726 11 88 0.0 1.6 0.00 0.00 0.00 53 1020.5
20260502035620 11 89 0.0 1.6 0.00 0.00 0.00 53 1020.5
20260502035513 11 88 0.0 1.6 0.00 0.00 0.00 54 1020.5
20260502035408 11 109 0.0 1.6 0.00 0.00 0.00 54 1020.4
20260502035301 11 109 0.0 1.6 0.00 0.00 0.00 54 1020.4
20260502035202 11 109 0.0 1.6 0.00 0.00 0.00 54 1020.4
20260502035103 11 271 0.0 1.6 0.00 0.00 0.00 54 1020.4
20260502035003 11 271 0.0 0.0 0.00 0.00 0.00 54 1020.4
20260502034902 11 271 0.0 0.0 0.00 0.00 0.00 54 1020.4
20260502034801 11 271 0.0 0.0 0.00 0.00 0.00 54 1020.4
20260502034612 11 271 0.0 0.0 0.00 0.00 0.00 54 1020.3
20260502034505 11 271 0.0 0.0 0.00 0.00 0.00 54 1020.4
20260502034403 11 271 0.0 0.0 0.00 0.00 0.00 54 1020.3
20260502034303 11 271 0.0 0.0 0.00 0.00 0.00 54 1020.4
20260502034202 11 271 0.0 0.0 0.00 0.00 0.00 53 1020.3
20260502034102 11 271 0.0 0.0 0.00 0.00 0.00 53 1020.3
20260502034042 11 271 0.0 0.0 0.00 0.00 0.00 53 1020.3
20260502033935 11 271 0.0 0.0 0.00 0.00 0.00 53 1020.3
20260502033830 11 271 0.0 0.0 0.00 0.00 0.00 53 1020.3
20260502033618 11 271 0.0 0.0 0.00 0.00 0.00 52 1020.3
20260502033511 12 271 0.0 0.0 0.00 0.00 0.00 52 1020.3
20260502033303 12 271 0.0 0.0 0.00 0.00 0.00 52 1020.2
20260502033202 12 271 0.0 0.0 0.00 0.00 0.00 52 1020.2
20260502033103 11 271 0.0 0.0 0.00 0.00 0.00 53 1020.2
20260502033004 11 270 0.0 0.0 0.00 0.00 0.00 53 1020.2
20260502032903 12 270 0.0 0.0 0.00 0.00 0.00 53 1020.2
20260502032802 11 270 0.0 0.0 0.00 0.00 0.00 52 1020.2
20260502032702 11 270 0.0 0.0 0.00 0.00 0.00 52 1020.1
20260502032602 12 270 0.0 0.0 0.00 0.00 0.00 52 1020.2
20260502032503 12 270 0.0 0.0 0.00 0.00 0.00 51 1020.1
20260502032402 12 270 0.0 0.0 0.00 0.00 0.00 51 1020.1
20260502032305 12 270 0.0 0.0 0.00 0.00 0.00 51 1020.1
20260502032202 12 270 0.0 0.0 0.00 0.00 0.00 51 1020.1
20260502032139 12 270 0.0 0.0 0.00 0.00 0.00 51 1020.1
20260502031927 12 270 0.0 0.0 0.00 0.00 0.00 51 1020.1
20260502031821 12 270 0.0 0.0 0.00 0.00 0.00 51 1020.0
20260502031401 12 270 0.0 0.0 0.00 0.00 0.00 50 1019.9
20260502031302 12 270 0.0 0.0 0.00 0.00 0.00 50 1020.0
20260502031202 12 270 0.0 0.0 0.00 0.00 0.00 51 1019.9
20260502031145 12 270 0.0 0.0 0.00 0.00 0.00 51 1019.9
20260502031040 12 270 0.0 0.0 0.00 0.00 0.00 50 1019.9
20260502030802 12 270 0.0 0.0 0.00 0.00 0.00 50 1019.9
20260502030702 12 270 0.0 0.0 0.00 0.00 0.00 49 1019.9
20260502030535 12 270 0.0 0.0 0.00 0.00 0.00 50 1019.9
20260502030430 13 270 0.0 0.0 0.00 0.00 0.00 49 1019.8
20260502030324 13 270 0.0 0.0 0.00 0.00 0.00 49 1019.8
20260502030217 13 270 0.0 0.0 0.00 0.00 0.00 49 1019.8
20260502030112 13 270 0.0 0.0 0.00 0.00 0.00 48 1019.8
20260502030007 13 270 0.0 0.0 0.00 0.00 0.00 48 1019.8
20260502025902 13 270 0.0 0.0 0.00 0.00 0.00 48 1019.8
20260502025802 13 270 0.0 0.0 0.00 0.00 0.00 48 1019.8
20260502025702 13 270 0.0 0.0 0.00 0.00 0.00 48 1019.7
20260502025401 13 270 0.0 0.0 0.00 0.00 0.00 47 1019.7
20260502025301 13 270 0.0 0.0 0.00 0.00 0.00 47 1019.7
20260502025202 13 270 0.0 0.0 0.00 0.00 0.00 47 1019.8
20260502025145 13 270 0.0 0.0 0.00 0.00 0.00 47 1019.8
20260502025041 13 270 0.0 0.0 0.00 0.00 0.00 47 1019.7
20260502024934 13 270 0.0 0.0 0.00 0.00 0.00 47 1019.8
20260502024828 13 270 0.0 0.0 0.00 0.00 0.00 47 1019.7
20260502024722 13 271 0.0 1.6 0.00 0.00 0.00 47 1019.7
20260502024615 13 252 0.0 1.6 0.00 0.00 0.00 47 1019.7
20260502024509 13 252 0.0 1.6 0.00 0.00 0.00 47 1019.6
20260502024404 13 254 0.0 1.6 0.00 0.00 0.00 47 1019.6
20260502024202 13 261 0.0 1.6 0.00 0.00 0.00 46 1019.7
20260502024047 13 257 0.0 1.6 0.00 0.00 0.00 47 1019.7
20260502023940 14 257 0.0 1.6 0.00 0.00 0.00 46 1019.7
20260502023727 14 306 0.0 1.6 0.00 0.00 0.00 46 1019.6
20260502023623 14 256 0.0 1.6 0.00 0.00 0.00 46 1019.6
20260502023516 14 256 0.0 1.6 0.00 0.00 0.00 46 1019.7
20260502023410 14 243 0.0 1.6 0.00 0.00 0.00 46 1019.6
20260502023303 14 269 0.0 1.6 0.00 0.00 0.00 46 1019.6
20260502023203 14 269 0.0 1.6 0.00 0.00 0.00 46 1019.6
20260502023103 14 269 0.0 1.6 0.00 0.00 0.00 47 1019.7
20260502022946 14 214 0.0 1.6 0.00 0.00 0.00 47 1019.6
20260502022839 14 205 0.0 3.2 0.00 0.00 0.00 46 1019.6
20260502022734 14 231 0.0 3.2 0.00 0.00 0.00 46 1019.6
20260502022601 14 236 0.0 3.2 0.00 0.00 0.00 45 1019.6
20260502022503 14 246 0.0 3.2 0.00 0.00 0.00 45 1019.6
20260502022402 14 230 0.0 3.2 0.00 0.00 0.00 45 1019.5
20260502022302 15 236 0.0 3.2 0.00 0.00 0.00 44 1019.5
20260502022202 15 236 0.0 3.2 0.00 0.00 0.00 44 1019.5
20260502022101 15 236 0.0 3.2 0.00 0.00 0.00 44 1019.5
20260502022044 15 236 0.0 3.2 0.00 0.00 0.00 44 1019.5
20260502021938 15 216 0.0 1.6 0.00 0.00 0.00 43 1019.5
20260502021832 15 216 0.0 1.6 0.00 0.00 0.00 43 1019.5
20260502021726 15 252 0.0 3.2 0.00 0.00 0.00 42 1019.4
20260502021619 15 250 0.0 3.2 0.00 0.00 0.00 42 1019.4
20260502021407 15 244 0.0 4.8 0.00 0.00 0.00 42 1019.4
20260502021302 15 236 0.0 4.8 0.00 0.00 0.00 41 1019.4
20260502021201 15 252 0.0 4.8 0.00 0.00 0.00 41 1019.4
20260502021102 15 232 0.0 4.8 0.00 0.00 0.00 41 1019.4
20260502021002 15 139 0.0 4.8 0.00 0.00 0.00 40 1019.4
20260502020944 15 139 0.0 4.8 0.00 0.00 0.00 40 1019.4
20260502020837 15 236 0.0 4.8 0.00 0.00 0.00 41 1019.4
20260502020731 15 248 0.0 4.8 0.00 0.00 0.00 41 1019.4
20260502020625 15 271 0.0 3.2 0.00 0.00 0.00 41 1019.4
20260502020520 15 225 0.0 3.2 0.00 0.00 0.00 41 1019.4
20260502020414 15 225 0.0 4.8 0.00 0.00 0.00 41 1019.4
20260502020307 15 270 1.6 6.4 0.00 0.00 0.00 41 1019.4
20260502020202 15 271 1.6 6.4 0.00 0.00 0.00 41 1019.4
20260502020005 15 224 1.6 6.4 0.00 0.00 0.00 41 1019.4
20260502015903 16 261 1.6 6.4 0.00 0.00 0.00 41 1019.4
20260502015803 16 240 1.6 6.4 0.00 0.00 0.00 42 1019.3
20260502015702 16 217 1.6 6.4 0.00 0.00 0.00 41 1019.3
20260502015602 16 237 1.6 6.4 0.00 0.00 0.00 40 1019.3
20260502015503 16 215 1.6 6.4 0.00 0.00 0.00 41 1019.2
20260502015403 16 252 1.6 6.4 0.00 0.00 0.00 41 1019.3
20260502015305 16 165 1.6 6.4 0.00 0.00 0.00 42 1019.3
20260502015203 16 166 3.2 12.9 0.00 0.00 0.00 42 1019.2
20260502015102 16 236 3.2 12.9 0.00 0.00 0.00 41 1019.3
20260502014903 16 219 3.2 12.9 0.00 0.00 0.00 40 1019.3
20260502014703 16 242 3.2 11.3 0.00 0.00 0.00 40 1019.2
20260502014602 16 207 3.2 11.3 0.00 0.00 0.00 40 1019.3
20260502014517 16 161 3.2 11.3 0.00 0.00 0.00 40 1019.3
20260502014411 16 119 3.2 12.9 0.00 0.00 0.00 39 1019.2
20260502014201 16 252 1.6 11.3 0.00 0.00 0.00 39 1019.2
20260502014101 16 238 1.6 11.3 0.00 0.00 0.00 38 1019.2
20260502014002 16 184 1.6 11.3 0.00 0.00 0.00 37 1019.2
20260502013902 16 201 1.6 6.4 0.00 0.00 0.00 37 1019.2
20260502013801 16 250 1.6 6.4 0.00 0.00 0.00 38 1019.1
20260502013701 17 153 1.6 11.3 0.00 0.00 0.00 37 1019.2
20260502013603 17 215 1.6 11.3 0.00 0.00 0.00 38 1019.1
20260502013502 17 191 3.2 11.3 0.00 0.00 0.00 37 1019.1
20260502013402 17 213 3.2 11.3 0.00 0.00 0.00 35 1019.2
20260502013303 17 233 3.2 11.3 0.00 0.00 0.00 36 1019.1
20260502013202 17 281 3.2 11.3 0.00 0.00 0.00 34 1019.2
20260502013003 17 108 3.2 12.9 0.00 0.00 0.00 36 1019.1
20260502012945 17 252 3.2 12.9 0.00 0.00 0.00 35 1019.1
20260502012734 17 236 3.2 11.3 0.00 0.00 0.00 35 1019.1
20260502012628 17 227 3.2 11.3 0.00 0.00 0.00 35 1019.1
20260502012415 17 167 3.2 11.3 0.00 0.00 0.00 35 1019.1
20260502012310 17 195 3.2 11.3 0.00 0.00 0.00 35 1019.1
20260502012002 17 236 3.2 11.3 0.00 0.00 0.00 33 1019.1
20260502011900 17 159 3.2 11.3 0.00 0.00 0.00 34 1019.1
20260502011846 17 146 3.2 11.3 0.00 0.00 0.00 34 1019.1
20260502011501 18 241 3.2 11.3 0.00 0.00 0.00 34 1019.1
20260502011402 18 209 3.2 11.3 0.00 0.00 0.00 35 1019.1
20260502011202 18 241 3.2 11.3 0.00 0.00 0.00 34 1019.1
20260502011103 18 255 3.2 11.3 0.00 0.00 0.00 35 1019.1
20260502011004 18 263 3.2 9.7 0.00 0.00 0.00 34 1019.1
20260502010924 18 139 3.2 9.7 0.00 0.00 0.00 34 1019.1
20260502010817 18 213 3.2 9.7 0.00 0.00 0.00 35 1019.1
20260502010711 18 150 3.2 9.7 0.00 0.00 0.00 34 1019.1
20260502010606 18 286 3.2 9.7 0.00 0.00 0.00 34 1019.1
20260502010502 18 163 3.2 9.7 0.00 0.00 0.00 35 1019.2
20260502010403 18 279 3.2 9.7 0.00 0.00 0.00 35 1019.2
20260502010302 18 155 3.2 9.7 0.00 0.00 0.00 34 1019.1
20260502010203 18 140 3.2 9.7 0.00 0.00 0.00 36 1019.2
20260502010004 18 292 3.2 11.3 0.00 0.00 0.00 34 1019.1
20260502005819 18 238 3.2 11.3 0.00 0.00 0.00 35 1019.1
20260502005714 18 210 3.2 11.3 0.00 0.00 0.00 35 1019.2
20260502005601 18 160 4.8 11.3 0.00 0.00 0.00 35 1019.3
20260502005503 18 141 4.8 11.3 0.00 0.00 0.00 34 1019.2
20260502005403 18 250 4.8 12.9 0.00 0.00 0.00 36 1019.2
20260502005305 18 248 4.8 12.9 0.00 0.00 0.00 35 1019.1
20260502005201 18 213 4.8 12.9 0.00 0.00 0.00 36 1019.1
20260502005101 18 140 4.8 12.9 0.00 0.00 0.00 35 1019.2
20260502005003 18 261 4.8 12.9 0.00 0.00 0.00 35 1019.2
20260502004942 18 233 4.8 12.9 0.00 0.00 0.00 35 1019.2
20260502004835 18 236 4.8 12.9 0.00 0.00 0.00 35 1019.1
20260502004730 18 186 4.8 12.9 0.00 0.00 0.00 34 1019.1
20260502004623 18 185 4.8 12.9 0.00 0.00 0.00 35 1019.2
20260502004518 18 171 4.8 12.9 0.00 0.00 0.00 36 1019.2
20260502004411 18 159 4.8 12.9 0.00 0.00 0.00 35 1019.1
20260502004306 18 213 4.8 12.9 0.00 0.00 0.00 35 1019.1
20260502004202 19 147 3.2 12.9 0.00 0.00 0.00 35 1019.1
20260502004101 19 211 3.2 12.9 0.00 0.00 0.00 35 1019.1
20260502004003 19 262 3.2 12.9 0.00 0.00 0.00 33 1019.1
20260502003901 19 211 3.2 12.9 0.00 0.00 0.00 32 1019.1
20260502003703 19 277 3.2 11.3 0.00 0.00 0.00 31 1019.1
20260502003603 19 232 3.2 11.3 0.00 0.00 0.00 32 1019.2
20260502003403 19 114 3.2 11.3 0.00 0.00 0.00 32 1019.1
20260502003302 19 266 3.2 11.3 0.00 0.00 0.00 32 1019.1
20260502003102 19 222 3.2 9.7 0.00 0.00 0.00 30 1019.1
20260502003041 19 124 3.2 11.3 0.00 0.00 0.00 29 1019.1
20260502002828 20 305 3.2 11.3 0.00 0.00 0.00 28 1019.1
20260502002721 19 87 3.2 11.3 0.00 0.00 0.00 29 1019.1
20260502002616 19 221 3.2 12.9 0.00 0.00 0.00 29 1019.2
20260502002509 19 163 3.2 12.9 0.00 0.00 0.00 29 1019.2
20260502002404 19 270 3.2 12.9 0.00 0.00 0.00 28 1019.1
20260502002201 19 259 4.8 12.9 0.00 0.00 0.00 28 1019.2
20260502002101 19 183 4.8 14.5 0.00 0.00 0.00 30 1019.1
20260502001936 19 238 4.8 12.9 0.00 0.00 0.00 30 1019.2
20260502001830 19 192 4.8 12.9 0.00 0.00 0.00 28 1019.2
20260502001702 19 305 3.2 12.9 0.00 0.00 0.00 28 1019.3
20260502001602 19 248 4.8 12.9 0.00 0.00 0.00 29 1019.2
20260502001443 19 308 4.8 12.9 0.00 0.00 0.00 30 1019.2
20260502001334 19 271 4.8 12.9 0.00 0.00 0.00 29 1019.2
20260502001203 19 270 3.2 12.9 0.00 0.00 0.00 29 1019.2
20260502001102 19 342 3.2 11.3 0.00 0.00 0.00 29 1019.3
20260502001003 19 136 3.2 9.7 0.00 0.00 0.00 29 1019.3
20260502000902 19 9 3.2 8.0 0.00 0.00 0.00 27 1019.4
20260502000801 19 318 3.2 8.0 0.00 0.00 0.00 27 1019.2
20260502000748 20 331 3.2 8.0 0.00 0.00 0.00 27 1019.2
20260502000640 20 29 3.2 11.3 0.00 0.00 0.00 28 1019.3
20260502000532 19 265 3.2 11.3 0.00 0.00 0.00 29 1019.3
20260502000425 19 261 3.2 11.3 0.00 0.00 0.00 30 1019.3
20260502000317 19 268 3.2 11.3 0.00 0.00 0.00 30 1019.3
20260502000208 19 138 3.2 11.3 0.00 0.00 0.00 31 1019.3
20260502000101 19 218 3.2 11.3 0.00 0.00 0.00 29 1019.3
20260502000005 19 277 3.2 11.3 0.00 0.00 0.00 28 1019.3
20260501235903 19 240 3.2 11.3 0.00 0.00 0.00 28 1019.3
20260501235844 19 159 3.2 11.3 0.00 0.00 0.00 28 1019.3
20260501235736 19 262 3.2 9.7 0.00 0.00 0.00 29 1019.2
20260501235628 19 160 3.2 9.7 0.00 0.00 0.00 28 1019.3
20260501235409 19 198 3.2 9.7 0.00 0.00 0.00 30 1019.3
20260501235305 19 225 3.2 9.7 0.00 0.00 0.00 31 1019.3
20260501235202 19 241 3.2 11.3 0.00 0.00 0.00 32 1019.4
20260501235101 19 292 4.8 12.9 0.00 0.00 0.00 29 1019.4
20260501234826 19 299 4.8 12.9 0.00 0.00 0.00 29 1019.4
20260501234607 19 237 4.8 12.9 0.00 0.00 0.00 29 1019.3
20260501234402 19 249 3.2 12.9 0.00 0.00 0.00 28 1019.3
20260501234243 19 216 3.2 14.5 0.00 0.00 0.00 28 1019.4
20260501234136 19 150 4.8 11.3 0.00 0.00 0.00 29 1019.4
20260501234029 19 235 4.8 11.3 0.00 0.00 0.00 30 1019.4
20260501233918 19 231 4.8 12.9 0.00 0.00 0.00 30 1019.4
20260501233809 19 211 4.8 17.7 0.00 0.00 0.00 30 1019.4
20260501233702 19 219 4.8 17.7 0.00 0.00 0.00 29 1019.4
20260501233517 19 197 4.8 17.7 0.00 0.00 0.00 30 1019.4
20260501233408 19 144 4.8 22.5 0.00 0.00 0.00 29 1019.4
20260501233302 19 239 4.8 22.5 0.00 0.00 0.00 29 1019.4
20260501233201 19 128 4.8 22.5 0.00 0.00 0.00 30 1019.4
20260501233149 19 219 4.8 22.5 0.00 0.00 0.00 30 1019.4
20260501233040 19 243 4.8 22.5 0.00 0.00 0.00 28 1019.4
20260501232821 19 345 4.8 22.5 0.00 0.00 0.00 29 1019.4
20260501232604 19 241 3.2 22.5 0.00 0.00 0.00 30 1019.4
20260501232502 19 14 3.2 14.5 0.00 0.00 0.00 29 1019.4
20260501232401 19 301 3.2 14.5 0.00 0.00 0.00 31 1019.4
20260501232305 19 148 3.2 14.5 0.00 0.00 0.00 29 1019.5
20260501232232 19 212 3.2 14.5 0.00 0.00 0.00 30 1019.5
20260501232123 19 112 3.2 12.9 0.00 0.00 0.00 31 1019.4
20260501232023 19 344 3.2 12.9 0.00 0.00 0.00 29 1019.5
20260501231908 19 246 3.2 12.9 0.00 0.00 0.00 31 1019.4
20260501231802 19 311 3.2 11.3 0.00 0.00 0.00 30 1019.4
20260501231702 19 254 3.2 14.5 0.00 0.00 0.00 30 1019.4
20260501231602 19 260 3.2 14.5 0.00 0.00 0.00 29 1019.5
20260501231502 19 225 4.8 14.5 0.00 0.00 0.00 32 1019.5
20260501231403 19 244 4.8 14.5 0.00 0.00 0.00 29 1019.5
20260501231346 19 279 4.8 14.5 0.00 0.00 0.00 29 1019.5
20260501231128 18 267 4.8 14.5 0.00 0.00 0.00 31 1019.5
20260501230909 19 261 4.8 14.5 0.00 0.00 0.00 30 1019.5
20260501230806 19 195 4.8 12.9 0.00 0.00 0.00 29 1019.6
20260501230501 19 191 4.8 12.9 0.00 0.00 0.00 29 1019.5
20260501230401 19 153 4.8 12.9 0.00 0.00 0.00 29 1019.5
20260501230344 19 275 4.8 12.9 0.00 0.00 0.00 30 1019.5
20260501230236 19 209 4.8 12.9 0.00 0.00 0.00 29 1019.6
20260501230128 19 248 4.8 12.9 0.00 0.00 0.00 28 1019.6
20260501230007 19 104 4.8 11.3 0.00 0.00 0.00 31 1019.6
20260501225928 19 196 4.8 11.3 0.00 0.00 0.00 30 1019.6
20260501225818 19 270 4.8 11.3 0.00 0.00 0.00 29 1019.6
20260501225708 19 213 4.8 11.3 0.00 0.00 0.00 30 1019.7
20260501225601 19 130 4.8 14.5 0.00 0.00 0.00 29 1019.6
20260501225502 19 273 4.8 14.5 0.00 0.00 0.00 30 1019.7
20260501225401 18 155 4.8 14.5 0.00 0.00 0.00 29 1019.7
20260501225301 18 225 4.8 14.5 0.00 0.00 0.00 30 1019.6
20260501225202 18 158 4.8 14.5 0.00 0.00 0.00 30 1019.6
20260501225101 18 291 4.8 14.5 0.00 0.00 0.00 29 1019.7
20260501225002 18 225 4.8 14.5 0.00 0.00 0.00 29 1019.7
20260501224944 18 152 4.8 14.5 0.00 0.00 0.00 29 1019.7
20260501224834 18 269 4.8 14.5 0.00 0.00 0.00 28 1019.7
20260501224723 18 185 6.4 14.5 0.00 0.00 0.00 29 1019.6
20260501224614 18 200 6.4 17.7 0.00 0.00 0.00 29 1019.6
20260501224504 19 252 6.4 17.7 0.00 0.00 0.00 29 1019.7
20260501224401 19 230 4.8 17.7 0.00 0.00 0.00 29 1019.7
20260501224301 19 272 6.4 17.7 0.00 0.00 0.00 29 1019.7
20260501224244 19 265 6.4 17.7 0.00 0.00 0.00 29 1019.7
20260501224102 18 154 6.4 17.7 0.00 0.00 0.00 31 1019.6
20260501224003 18 221 6.4 17.7 0.00 0.00 0.00 28 1019.7
20260501223902 18 255 6.4 17.7 0.00 0.00 0.00 29 1019.6
20260501223801 18 257 4.8 19.3 0.00 0.00 0.00 29 1019.6
20260501223746 18 264 4.8 19.3 0.00 0.00 0.00 29 1019.6
20260501223636 18 269 4.8 16.1 0.00 0.00 0.00 29 1019.7
20260501223502 19 246 4.8 16.1 0.00 0.00 0.00 29 1019.7
20260501223402 18 236 6.4 16.1 0.00 0.00 0.00 29 1019.7
20260501223303 18 226 4.8 16.1 0.00 0.00 0.00 28 1019.7
20260501223202 19 34 4.8 16.1 0.00 0.00 0.00 29 1019.7
20260501223101 18 137 4.8 12.9 0.00 0.00 0.00 29 1019.7
20260501223004 18 189 4.8 12.9 0.00 0.00 0.00 30 1019.7
20260501222803 18 125 6.4 12.9 0.00 0.00 0.00 30 1019.8
20260501222702 18 321 6.4 12.9 0.00 0.00 0.00 30 1019.9
20260501222601 18 316 4.8 16.1 0.00 0.00 0.00 29 1019.8
20260501222542 18 335 4.8 16.1 0.00 0.00 0.00 29 1019.8
20260501222431 19 34 4.8 16.1 0.00 0.00 0.00 28 1019.8
20260501222321 19 163 4.8 16.1 0.00 0.00 0.00 29 1019.9
20260501222213 19 276 4.8 16.1 0.00 0.00 0.00 29 1019.9
20260501222102 19 225 4.8 16.1 0.00 0.00 0.00 29 1019.9
20260501222002 19 249 4.8 16.1 0.00 0.00 0.00 30 1019.9
20260501221901 19 261 4.8 16.1 0.00 0.00 0.00 30 1020.0
20260501221802 18 268 6.4 16.1 0.00 0.00 0.00 30 1019.9
20260501221702 19 318 6.4 16.1 0.00 0.00 0.00 30 1020.0
20260501221642 18 53 6.4 16.1 0.00 0.00 0.00 29 1020.0
20260501221503 18 196 6.4 16.1 0.00 0.00 0.00 30 1019.9
20260501221442 18 205 6.4 16.1 0.00 0.00 0.00 30 1019.9
20260501221332 18 287 6.4 16.1 0.00 0.00 0.00 29 1019.9
20260501221221 18 219 6.4 16.1 0.00 0.00 0.00 29 1020.0
20260501221004 18 155 4.8 16.1 0.00 0.00 0.00 31 1020.0
20260501220901 18 304 6.4 16.1 0.00 0.00 0.00 29 1020.0
20260501220803 18 281 6.4 17.7 0.00 0.00 0.00 29 1019.9
20260501220741 18 202 4.8 17.7 0.00 0.00 0.00 29 1019.9
20260501220501 18 234 4.8 20.9 0.00 0.00 0.00 29 1020.1
20260501220401 18 238 4.8 20.9 0.00 0.00 0.00 31 1020.1
20260501220202 18 279 6.4 20.9 0.00 0.00 0.00 29 1020.0
20260501220101 18 252 6.4 20.9 0.00 0.00 0.00 30 1020.1
20260501220027 18 267 6.4 20.9 0.00 0.00 0.00 31 1020.1
20260501215910 18 231 6.4 20.9 0.00 0.00 0.00 29 1020.1
20260501215801 18 61 4.8 20.9 0.00 0.00 0.00 28 1020.1
20260501215540 18 234 4.8 14.5 0.00 0.00 0.00 29 1020.1
20260501215429 18 240 4.8 14.5 0.00 0.00 0.00 30 1020.1
20260501215320 18 253 4.8 11.3 0.00 0.00 0.00 29 1020.0
20260501215210 18 224 4.8 11.3 0.00 0.00 0.00 31 1020.2
20260501215103 18 233 4.8 24.1 0.00 0.00 0.00 30 1020.2
20260501214840 18 123 6.4 24.1 0.00 0.00 0.00 29 1020.1
20260501214730 18 226 6.4 24.1 0.00 0.00 0.00 31 1020.2
20260501214619 18 13 6.4 24.1 0.00 0.00 0.00 31 1020.2
20260501214510 18 270 6.4 24.1 0.00 0.00 0.00 30 1020.2
20260501214402 18 228 6.4 24.1 0.00 0.00 0.00 30 1020.2
20260501214251 18 241 6.4 24.1 0.00 0.00 0.00 31 1020.2
20260501214140 18 155 6.4 17.7 0.00 0.00 0.00 30 1020.1
20260501214031 18 255 6.4 16.1 0.00 0.00 0.00 30 1020.2
20260501213921 18 313 6.4 16.1 0.00 0.00 0.00 33 1020.3
20260501213601 18 236 6.4 19.3 0.00 0.00 0.00 31 1020.2
20260501213549 18 317 6.4 19.3 0.00 0.00 0.00 32 1020.2
20260501213440 18 248 6.4 19.3 0.00 0.00 0.00 33 1020.2
20260501213330 18 300 4.8 19.3 0.00 0.00 0.00 33 1020.3
20260501213109 18 171 6.4 16.1 0.00 0.00 0.00 33 1020.3
20260501212909 18 152 6.4 22.5 0.00 0.00 0.00 33 1020.4
20260501212701 18 198 6.4 22.5 0.00 0.00 0.00 31 1020.4
20260501212649 18 211 6.4 22.5 0.00 0.00 0.00 31 1020.4
20260501212402 18 247 8.0 22.5 0.00 0.00 0.00 32 1020.4
20260501212301 18 222 6.4 22.5 0.00 0.00 0.00 31 1020.4
20260501212203 18 259 6.4 22.5 0.00 0.00 0.00 32 1020.4
20260501212101 18 213 6.4 16.1 0.00 0.00 0.00 32 1020.4
20260501212004 18 232 6.4 16.1 0.00 0.00 0.00 32 1020.5
20260501211948 18 240 6.4 16.1 0.00 0.00 0.00 32 1020.5
20260501211838 18 232 6.4 16.1 0.00 0.00 0.00 33 1020.5
20260501211727 18 153 6.4 14.5 0.00 0.00 0.00 33 1020.5
20260501211617 18 224 6.4 14.5 0.00 0.00 0.00 32 1020.4
20260501211507 18 259 6.4 14.5 0.00 0.00 0.00 29 1020.5
20260501211401 18 256 6.4 14.5 0.00 0.00 0.00 30 1020.6
20260501211301 18 249 6.4 16.1 0.00 0.00 0.00 32 1020.5
20260501211248 18 238 6.4 16.1 0.00 0.00 0.00 32 1020.5
20260501211137 18 247 4.8 16.1 0.00 0.00 0.00 31 1020.6
20260501211030 18 269 6.4 16.1 0.00 0.00 0.00 34 1020.5
20260501210918 18 242 4.8 16.1 0.00 0.00 0.00 33 1020.5
20260501210801 18 175 4.8 16.1 0.00 0.00 0.00 33 1020.6
20260501210702 18 247 4.8 16.1 0.00 0.00 0.00 32 1020.6
20260501210623 18 209 6.4 16.1 0.00 0.00 0.00 33 1020.6
20260501210513 18 232 6.4 16.1 0.00 0.00 0.00 31 1020.5
20260501210404 18 225 6.4 14.5 0.00 0.00 0.00 31 1020.6
20260501210302 18 347 6.4 14.5 0.00 0.00 0.00 32 1020.6
20260501210144 18 240 6.4 14.5 0.00 0.00 0.00 32 1020.6
20260501205902 18 301 6.4 14.5 0.00 0.00 0.00 30 1020.7
20260501205802 18 201 6.4 19.3 0.00 0.00 0.00 30 1020.6
20260501205702 18 239 6.4 19.3 0.00 0.00 0.00 30 1020.6
20260501205602 18 267 6.4 19.3 0.00 0.00 0.00 31 1020.6
20260501205501 18 265 8.0 19.3 0.00 0.00 0.00 31 1020.6
20260501205442 18 21 8.0 19.3 0.00 0.00 0.00 31 1020.6
20260501205332 18 261 8.0 19.3 0.00 0.00 0.00 31 1020.5
20260501205221 18 242 8.0 19.3 0.00 0.00 0.00 30 1020.6
20260501205111 18 240 8.0 19.3 0.00 0.00 0.00 29 1020.7
20260501205002 18 229 6.4 19.3 0.00 0.00 0.00 31 1020.7
20260501204902 18 249 6.4 19.3 0.00 0.00 0.00 31 1020.7
20260501204801 18 146 6.4 19.3 0.00 0.00 0.00 31 1020.7
20260501204522 18 266 6.4 16.1 0.00 0.00 0.00 29 1020.7
20260501204412 18 186 6.4 16.1 0.00 0.00 0.00 31 1020.6
20260501204301 18 130 6.4 20.9 0.00 0.00 0.00 32 1020.6
20260501204203 18 287 6.4 20.9 0.00 0.00 0.00 34 1020.7
20260501204103 18 281 6.4 20.9 0.00 0.00 0.00 31 1020.7
20260501204003 18 290 6.4 20.9 0.00 0.00 0.00 30 1020.6
20260501203902 18 264 6.4 20.9 0.00 0.00 0.00 31 1020.6
20260501203802 18 266 6.4 20.9 0.00 0.00 0.00 30 1020.6
20260501203702 18 259 6.4 20.9 0.00 0.00 0.00 31 1020.6
20260501203602 18 146 6.4 20.9 0.00 0.00 0.00 30 1020.6
20260501203502 18 213 6.4 20.9 0.00 0.00 0.00 30 1020.6
20260501203406 18 290 6.4 14.5 0.00 0.00 0.00 31 1020.6
20260501203303 18 313 6.4 12.9 0.00 0.00 0.00 33 1020.6
20260501203201 18 199 6.4 12.9 0.00 0.00 0.00 32 1020.6
20260501203146 18 243 6.4 12.9 0.00 0.00 0.00 33 1020.6
20260501202706 18 281 8.0 19.3 0.00 0.00 0.00 34 1020.6
20260501202602 18 265 8.0 19.3 0.00 0.00 0.00 34 1020.6
20260501202501 18 252 8.0 19.3 0.00 0.00 0.00 33 1020.7
20260501202446 18 244 8.0 19.3 0.00 0.00 0.00 34 1020.7
20260501202336 18 122 8.0 19.3 0.00 0.00 0.00 35 1020.5
20260501202201 18 215 6.4 16.1 0.00 0.00 0.00 34 1020.6
20260501202101 18 137 6.4 16.1 0.00 0.00 0.00 35 1020.6
20260501202004 18 209 6.4 16.1 0.00 0.00 0.00 34 1020.7
20260501201902 18 240 6.4 16.1 0.00 0.00 0.00 35 1020.7
20260501201802 18 284 6.4 16.1 0.00 0.00 0.00 34 1020.5
20260501201706 18 229 6.4 12.9 0.00 0.00 0.00 35 1020.5
20260501201601 18 250 6.4 14.5 0.00 0.00 0.00 35 1020.6
20260501201503 18 246 6.4 14.5 0.00 0.00 0.00 35 1020.6
20260501201403 18 223 6.4 14.5 0.00 0.00 0.00 36 1020.6
20260501201301 18 250 6.4 14.5 0.00 0.00 0.00 37 1020.6
20260501201241 18 202 6.4 14.5 0.00 0.00 0.00 35 1020.6
20260501201134 17 313 6.4 14.5 0.00 0.00 0.00 36 1020.7
20260501201028 17 236 6.4 14.5 0.00 0.00 0.00 34 1020.6
20260501200920 17 213 6.4 14.5 0.00 0.00 0.00 32 1020.6
20260501200815 18 261 6.4 14.5 0.00 0.00 0.00 32 1020.7
20260501200708 18 301 6.4 16.1 0.00 0.00 0.00 34 1020.5
20260501200603 18 220 4.8 16.1 0.00 0.00 0.00 34 1020.6
20260501200502 18 248 4.8 12.9 0.00 0.00 0.00 33 1020.7
20260501200402 18 270 4.8 11.3 0.00 0.00 0.00 32 1020.7
20260501200302 18 221 4.8 11.3 0.00 0.00 0.00 31 1020.7
20260501200004 18 159 4.8 11.3 0.00 0.00 0.00 33 1020.7
20260501195902 17 236 4.8 16.1 0.00 0.00 0.00 30 1020.7
20260501195802 18 242 4.8 16.1 0.00 0.00 0.00 30 1020.8
20260501195702 17 264 6.4 16.1 0.00 0.00 0.00 34 1020.7
20260501195602 17 251 4.8 16.1 0.00 0.00 0.00 32 1020.8
20260501195502 17 146 4.8 16.1 0.00 0.00 0.00 32 1020.8
20260501195401 18 223 6.4 16.1 0.00 0.00 0.00 31 1020.8
20260501195305 18 302 6.4 14.5 0.00 0.00 0.00 32 1020.8
20260501195240 18 236 6.4 14.5 0.00 0.00 0.00 32 1020.8
20260501195135 18 198 6.4 14.5 0.00 0.00 0.00 31 1020.8
20260501195030 18 250 6.4 14.5 0.00 0.00 0.00 34 1020.8
20260501194923 18 248 4.8 16.1 0.00 0.00 0.00 34 1020.7
20260501194710 18 238 4.8 14.5 0.00 0.00 0.00 35 1020.7
20260501194605 18 132 4.8 14.5 0.00 0.00 0.00 34 1020.8
20260501194502 18 242 4.8 14.5 0.00 0.00 0.00 34 1020.8
20260501194401 18 244 4.8 16.1 0.00 0.00 0.00 32 1020.8
20260501194302 18 131 4.8 14.5 0.00 0.00 0.00 33 1020.8
20260501194203 18 167 4.8 16.1 0.00 0.00 0.00 32 1020.9
20260501194102 18 266 4.8 16.1 0.00 0.00 0.00 32 1020.8
20260501194004 18 244 4.8 16.1 0.00 0.00 0.00 33 1020.8
20260501193902 18 164 4.8 16.1 0.00 0.00 0.00 35 1020.8
20260501193803 18 214 4.8 16.1 0.00 0.00 0.00 34 1020.9
20260501193502 18 254 4.8 16.1 0.00 0.00 0.00 35 1021.0
20260501193401 18 240 4.8 16.1 0.00 0.00 0.00 34 1020.9
20260501193302 18 246 4.8 11.3 0.00 0.00 0.00 34 1020.8
20260501193201 17 236 3.2 9.7 0.00 0.00 0.00 35 1021.0
20260501193102 17 168 3.2 11.3 0.00 0.00 0.00 35 1021.0
20260501193002 17 207 4.8 11.3 0.00 0.00 0.00 31 1021.0
20260501192801 17 191 4.8 11.3 0.00 0.00 0.00 32 1021.0
20260501192701 17 239 4.8 11.3 0.00 0.00 0.00 35 1020.9
20260501192501 17 145 4.8 11.3 0.00 0.00 0.00 34 1021.0
20260501192439 17 257 4.8 11.3 0.00 0.00 0.00 34 1021.0
20260501192332 17 257 4.8 16.1 0.00 0.00 0.00 34 1021.0
20260501192227 17 161 4.8 16.1 0.00 0.00 0.00 34 1021.0
20260501192121 17 227 4.8 16.1 0.00 0.00 0.00 37 1021.1
20260501192023 17 224 4.8 16.1 0.00 0.00 0.00 37 1021.1
20260501191715 17 236 6.4 16.1 0.00 0.00 0.00 34 1021.2
20260501191608 17 207 6.4 16.1 0.00 0.00 0.00 35 1021.1
20260501191503 17 257 4.8 12.9 0.00 0.00 0.00 36 1021.2
20260501191402 17 257 4.8 12.9 0.00 0.00 0.00 35 1021.2
20260501191302 17 151 4.8 12.9 0.00 0.00 0.00 35 1021.2
20260501191202 17 222 4.8 12.9 0.00 0.00 0.00 34 1021.1
20260501191101 17 217 4.8 14.5 0.00 0.00 0.00 33 1021.2
20260501191003 17 157 4.8 14.5 0.00 0.00 0.00 36 1021.3
20260501190901 17 213 4.8 14.5 0.00 0.00 0.00 34 1021.2
20260501190843 17 238 4.8 14.5 0.00 0.00 0.00 33 1021.2
20260501190737 17 240 4.8 14.5 0.00 0.00 0.00 32 1021.2
20260501190630 17 180 4.8 14.5 0.00 0.00 0.00 34 1021.3